Time,TemperatureF,DewpointF,PressureIn,WindDirection,WindDirectionDegrees,WindSpeedMPH,WindSpeedGustMPH,Humidity,HourlyPrecipIn,Conditions,Clouds,dailyrainin,SoftwareType,DateUTC
2013-01-27 00:04:00,48.0,41.1,30.07,West,270,3.0,12.0,77,0.00,,,0.00,Weather View 32 v70,2013-01-27 08:04:00,
2013-01-27 00:09:00,48.0,41.1,30.07,NNW,337,0.0,12.0,77,0.00,,,0.00,Weather View 32 v70,2013-01-27 08:09:00,
2013-01-27 00:14:00,48.0,41.1,30.07,NNW,337,6.0,12.0,77,0.00,,,0.00,Weather View 32 v70,2013-01-27 08:14:00,
2013-01-27 00:20:00,47.0,40.2,30.07,West,270,5.0,11.0,77,0.00,,,0.00,Weather View 32 v70,2013-01-27 08:20:00,
2013-01-27 00:25:00,47.0,40.2,30.07,NNW,337,0.0,11.0,77,0.00,,,0.00,Weather View 32 v70,2013-01-27 08:25:00,
2013-01-27 00:30:00,47.0,40.2,30.08,SW,225,1.0,11.0,77,0.00,,,0.00,Weather View 32 v70,2013-01-27 08:30:00,
2013-01-27 00:35:00,47.0,40.2,30.07,West,270,2.0,11.0,77,0.00,,,0.00,Weather View 32 v70,2013-01-27 08:35:00,
2013-01-27 00:40:00,47.0,40.8,30.07,SW,225,0.0,11.0,79,0.00,,,0.00,Weather View 32 v70,2013-01-27 08:40:00,
2013-01-27 00:45:00,47.0,40.2,30.07,NW,315,5.0,11.0,77,0.00,,,0.00,Weather View 32 v70,2013-01-27 08:45:00,
2013-01-27 00:54:00,47.0,40.2,30.07,WSW,247,11.0,13.0,77,0.00,,,0.00,Weather View 32 v70,2013-01-27 08:54:00,
2013-01-27 00:59:00,47.0,40.2,30.07,WSW,247,2.0,13.0,77,0.00,,,0.00,Weather View 32 v70,2013-01-27 08:59:00,
2013-01-27 01:04:00,47.0,40.2,30.07,WSW,247,4.0,13.0,77,0.00,,,0.00,Weather View 32 v70,2013-01-27 09:04:00,
2013-01-27 01:09:00,47.0,40.2,30.07,WNW,292,2.0,13.0,77,0.00,,,0.00,Weather View 32 v70,2013-01-27 09:09:00,
2013-01-27 01:14:00,47.0,40.5,30.07,NW,315,1.0,13.0,78,0.00,,,0.00,Weather View 32 v70,2013-01-27 09:14:00,
2013-01-27 01:20:00,47.0,40.2,30.07,WNW,292,1.0,13.0,77,0.00,,,0.00,Weather View 32 v70,2013-01-27 09:20:00,
2013-01-27 01:25:00,47.0,40.2,30.07,WNW,292,2.0,13.0,77,0.00,,,0.00,Weather View 32 v70,2013-01-27 09:25:00,
2013-01-27 01:30:00,47.0,40.2,30.07,West,270,1.0,13.0,77,0.00,,,0.00,Weather View 32 v70,2013-01-27 09:30:00,
2013-01-27 01:32:00,47.0,40.2,30.07,West,270,1.0,13.0,77,0.00,,,0.00,Weather View 32 v70,2013-01-27 09:32:00,
2013-01-27 01:34:00,47.0,40.2,30.07,SW,225,8.0,13.0,77,0.00,,,0.00,Weather View 32 v70,2013-01-27 09:34:00,
2013-01-27 01:39:00,47.0,40.2,30.07,WNW,292,2.0,13.0,77,0.00,,,0.00,Weather View 32 v70,2013-01-27 09:39:00,
2013-01-27 01:44:00,47.0,40.2,30.07,WSW,247,4.0,13.0,77,0.00,,,0.00,Weather View 32 v70,2013-01-27 09:44:00,
2013-01-27 01:49:00,47.0,40.8,30.07,NW,315,1.0,13.0,79,0.00,,,0.00,Weather View 32 v70,2013-01-27 09:49:00,
2013-01-27 01:54:00,46.0,39.2,30.07,West,270,0.0,13.0,77,0.00,,,0.00,Weather View 32 v70,2013-01-27 09:54:00,
2013-01-27 01:59:00,46.0,39.5,30.08,NNW,337,1.0,13.0,78,0.00,,,0.00,Weather View 32 v70,2013-01-27 09:59:00,
2013-01-27 02:04:00,46.0,39.2,30.07,WSW,247,3.0,13.0,77,0.00,,,0.00,Weather View 32 v70,2013-01-27 10:04:00,
2013-01-27 02:09:00,46.0,39.2,30.07,WNW,292,4.0,13.0,77,0.00,,,0.00,Weather View 32 v70,2013-01-27 10:09:00,
2013-01-27 02:14:00,46.0,39.5,30.08,SW,225,2.0,13.0,78,0.00,,,0.00,Weather View 32 v70,2013-01-27 10:14:00,
2013-01-27 02:19:00,46.0,39.2,30.07,WNW,292,8.0,13.0,77,0.00,,,0.00,Weather View 32 v70,2013-01-27 10:19:00,
2013-01-27 02:24:00,47.0,40.8,30.07,WSW,247,5.0,13.0,79,0.00,,,0.00,Weather View 32 v70,2013-01-27 10:24:00,
2013-01-27 02:29:00,47.0,40.2,30.07,SW,225,2.0,13.0,77,0.00,,,0.00,Weather View 32 v70,2013-01-27 10:29:00,
2013-01-27 02:33:00,47.0,40.2,30.07,SW,225,2.0,13.0,77,0.00,,,0.00,Weather View 32 v70,2013-01-27 10:33:00,
2013-01-27 02:39:00,46.0,39.2,30.07,SW,225,1.0,13.0,77,0.00,,,0.00,Weather View 32 v70,2013-01-27 10:39:00,
2013-01-27 02:44:00,46.0,39.2,30.07,WNW,292,1.0,13.0,77,0.00,,,0.00,Weather View 32 v70,2013-01-27 10:44:00,
2013-01-27 02:49:00,46.0,39.5,30.07,SW,225,0.0,13.0,78,0.00,,,0.00,Weather View 32 v70,2013-01-27 10:49:00,
2013-01-27 02:54:00,46.0,39.5,30.07,WSW,247,1.0,13.0,78,0.00,,,0.00,Weather View 32 v70,2013-01-27 10:54:00,
2013-01-27 02:59:00,46.0,40.2,30.07,SW,225,2.0,13.0,80,0.00,,,0.00,Weather View 32 v70,2013-01-27 10:59:00,
2013-01-27 03:09:00,46.0,39.5,30.07,WNW,292,7.0,13.0,78,0.00,,,0.00,Weather View 32 v70,2013-01-27 11:09:00,
2013-01-27 03:14:00,46.0,39.5,30.07,WSW,247,3.0,13.0,78,0.00,,,0.00,Weather View 32 v70,2013-01-27 11:14:00,
2013-01-27 03:19:00,46.0,39.5,30.07,West,270,3.0,13.0,78,0.00,,,0.00,Weather View 32 v70,2013-01-27 11:19:00,
2013-01-27 03:24:00,46.0,39.5,30.07,WSW,247,8.0,13.0,78,0.00,,,0.00,Weather View 32 v70,2013-01-27 11:24:00,
2013-01-27 03:29:00,46.0,39.5,30.07,WNW,292,1.0,12.0,78,0.00,,,0.00,Weather View 32 v70,2013-01-27 11:29:00,
2013-01-27 03:34:00,46.0,39.5,30.07,WSW,247,6.0,12.0,78,0.00,,,0.00,Weather View 32 v70,2013-01-27 11:34:00,
2013-01-27 03:39:00,46.0,39.5,30.07,West,270,6.0,12.0,78,0.00,,,0.00,Weather View 32 v70,2013-01-27 11:39:00,
2013-01-27 03:44:00,46.0,39.5,30.07,NW,315,0.0,12.0,78,0.00,,,0.00,Weather View 32 v70,2013-01-27 11:44:00,
2013-01-27 03:49:00,46.0,39.8,30.07,WNW,292,1.0,12.0,79,0.00,,,0.00,Weather View 32 v70,2013-01-27 11:49:00,
2013-01-27 03:54:00,46.0,39.5,30.07,SW,225,0.0,12.0,78,0.00,,,0.00,Weather View 32 v70,2013-01-27 11:54:00,
2013-01-27 03:59:00,46.0,39.5,30.07,WNW,292,1.0,12.0,78,0.00,,,0.00,Weather View 32 v70,2013-01-27 11:59:00,
2013-01-27 04:04:00,46.0,39.5,30.07,WSW,247,5.0,12.0,78,0.00,,,0.00,Weather View 32 v70,2013-01-27 12:04:00,
2013-01-27 04:09:00,46.0,39.5,30.07,SW,225,6.0,12.0,78,0.00,,,0.00,Weather View 32 v70,2013-01-27 12:09:00,
2013-01-27 04:14:00,46.0,39.5,30.07,West,270,1.0,12.0,78,0.00,,,0.00,Weather View 32 v70,2013-01-27 12:14:00,
2013-01-27 04:24:00,46.0,39.8,30.07,West,270,6.0,12.0,79,0.00,,,0.00,Weather View 32 v70,2013-01-27 12:24:00,
2013-01-27 04:29:00,46.0,39.5,30.07,NW,315,2.0,12.0,78,0.00,,,0.00,Weather View 32 v70,2013-01-27 12:29:00,
2013-01-27 04:34:00,46.0,39.5,30.07,NW,315,2.0,12.0,78,0.00,,,0.00,Weather View 32 v70,2013-01-27 12:34:00,
2013-01-27 04:39:00,46.0,38.8,30.07,West,270,2.0,12.0,76,0.00,,,0.00,Weather View 32 v70,2013-01-27 12:39:00,
2013-01-27 04:44:00,45.0,38.2,30.07,West,270,0.0,12.0,77,0.00,,,0.00,Weather View 32 v70,2013-01-27 12:44:00,
2013-01-27 04:49:00,46.0,39.2,30.07,SW,225,3.0,12.0,77,0.00,,,0.00,Weather View 32 v70,2013-01-27 12:49:00,
2013-01-27 04:54:00,46.0,38.8,30.07,West,270,0.0,12.0,76,0.00,,,0.00,Weather View 32 v70,2013-01-27 12:54:00,
2013-01-27 05:04:00,45.0,37.2,30.07,West,270,4.0,12.0,74,0.00,,,0.00,Weather View 32 v70,2013-01-27 13:04:00,
2013-01-27 05:09:00,45.0,37.2,30.07,NW,315,3.0,12.0,74,0.00,,,0.00,Weather View 32 v70,2013-01-27 13:09:00,
2013-01-27 05:14:00,45.0,36.9,30.07,West,270,6.0,12.0,73,0.00,,,0.00,Weather View 32 v70,2013-01-27 13:14:00,
2013-01-27 05:19:00,45.0,36.5,30.07,West,270,0.0,12.0,72,0.00,,,0.00,Weather View 32 v70,2013-01-27 13:19:00,
2013-01-27 05:24:00,45.0,37.2,30.07,SW,225,2.0,12.0,74,0.00,,,0.00,Weather View 32 v70,2013-01-27 13:24:00,
2013-01-27 05:29:00,45.0,37.2,30.07,SW,225,2.0,12.0,74,0.00,,,0.00,Weather View 32 v70,2013-01-27 13:29:00,
2013-01-27 05:34:00,45.0,37.2,30.07,SW,225,2.0,12.0,74,0.00,,,0.00,Weather View 32 v70,2013-01-27 13:34:00,
2013-01-27 05:39:00,44.0,36.9,30.08,West,270,3.0,12.0,76,0.00,,,0.00,Weather View 32 v70,2013-01-27 13:39:00,
2013-01-27 05:44:00,44.0,37.2,30.09,WNW,292,0.0,12.0,77,0.00,,,0.00,Weather View 32 v70,2013-01-27 13:44:00,
2013-01-27 05:49:00,44.0,37.6,30.09,NW,315,0.0,12.0,78,0.00,,,0.00,Weather View 32 v70,2013-01-27 13:49:00,
2013-01-27 05:54:00,44.0,37.6,30.09,NW,315,0.0,12.0,78,0.00,,,0.00,Weather View 32 v70,2013-01-27 13:54:00,
2013-01-27 05:59:00,44.0,37.6,30.09,West,270,1.0,12.0,78,0.00,,,0.00,Weather View 32 v70,2013-01-27 13:59:00,
2013-01-27 06:04:00,45.0,38.5,30.08,WNW,292,0.0,9.0,78,0.00,,,0.00,Weather View 32 v70,2013-01-27 14:04:00,
2013-01-27 06:09:00,44.0,37.9,30.09,West,270,5.0,9.0,79,0.00,,,0.00,Weather View 32 v70,2013-01-27 14:09:00,
2013-01-27 06:14:00,44.0,37.6,30.09,WNW,292,5.0,9.0,78,0.00,,,0.00,Weather View 32 v70,2013-01-27 14:14:00,
2013-01-27 06:19:00,44.0,37.6,30.09,SW,225,0.0,9.0,78,0.00,,,0.00,Weather View 32 v70,2013-01-27 14:19:00,
2013-01-27 06:24:00,44.0,37.9,30.09,SW,225,0.0,9.0,79,0.00,,,0.00,Weather View 32 v70,2013-01-27 14:24:00,
2013-01-27 06:29:00,44.0,37.6,30.09,WNW,292,0.0,9.0,78,0.00,,,0.00,Weather View 32 v70,2013-01-27 14:29:00,
2013-01-27 06:35:00,44.0,37.6,30.10,WNW,292,0.0,9.0,78,0.00,,,0.00,Weather View 32 v70,2013-01-27 14:35:00,
2013-01-27 06:44:00,44.0,37.9,30.10,West,270,0.0,9.0,79,0.00,,,0.00,Weather View 32 v70,2013-01-27 14:44:00,
2013-01-27 06:49:00,43.0,36.3,30.10,NNW,337,0.0,9.0,77,0.00,,,0.00,Weather View 32 v70,2013-01-27 14:49:00,
2013-01-27 06:54:00,43.0,35.6,30.11,NNW,337,0.0,9.0,75,0.00,,,0.00,Weather View 32 v70,2013-01-27 14:54:00,
2013-01-27 06:59:00,42.0,32.2,30.11,NNW,337,0.0,9.0,68,0.00,,,0.00,Weather View 32 v70,2013-01-27 14:59:00,
2013-01-27 07:04:00,42.0,30.7,30.11,WNW,292,0.0,9.0,64,0.00,,,0.00,Weather View 32 v70,2013-01-27 15:04:00,
2013-01-27 07:09:00,42.0,30.3,30.12,WSW,247,1.0,9.0,63,0.00,,,0.00,Weather View 32 v70,2013-01-27 15:09:00,
2013-01-27 07:14:00,42.0,30.3,30.12,SW,225,0.0,9.0,63,0.00,,,0.00,Weather View 32 v70,2013-01-27 15:14:00,
2013-01-27 07:19:00,43.0,28.4,30.11,West,270,0.0,6.0,56,0.00,,,0.00,Weather View 32 v70,2013-01-27 15:19:00,
2013-01-27 07:24:00,43.0,30.5,30.11,West,270,0.0,6.0,61,0.00,,,0.00,Weather View 32 v70,2013-01-27 15:24:00,
2013-01-27 07:29:00,43.0,29.6,30.11,West,270,0.0,6.0,59,0.00,,,0.00,Weather View 32 v70,2013-01-27 15:29:00,
2013-01-27 07:34:00,43.0,28.8,30.11,NNW,337,0.0,6.0,57,0.00,,,0.00,Weather View 32 v70,2013-01-27 15:34:00,
2013-01-27 07:35:00,43.0,28.8,30.11,NNW,337,0.0,6.0,57,0.00,,,0.00,Weather View 32 v70,2013-01-27 15:35:00,
2013-01-27 07:39:00,43.0,27.9,30.11,NE,45,0.0,5.0,55,0.00,,,0.00,Weather View 32 v70,2013-01-27 15:39:00,
2013-01-27 07:44:00,44.0,28.8,30.11,North,360,0.0,5.0,55,0.00,,,0.00,Weather View 32 v70,2013-01-27 15:44:00,
2013-01-27 07:49:00,44.0,28.8,30.11,WSW,247,2.0,6.0,55,0.00,,,0.00,Weather View 32 v70,2013-01-27 15:49:00,
2013-01-27 07:54:00,45.0,-50.3,30.11,WSW,247,1.0,7.0,1,0.00,,,0.00,Weather View 32 v70,2013-01-27 15:54:00,
2013-01-27 07:59:00,45.0,28.9,30.11,NW,315,2.0,7.0,53,0.00,,,0.00,Weather View 32 v70,2013-01-27 15:59:00,
2013-01-27 08:04:00,46.0,29.3,30.11,NW,315,5.0,7.0,52,0.00,,,0.00,Weather View 32 v70,2013-01-27 16:04:00,
2013-01-27 08:09:00,46.0,29.3,30.12,NW,315,0.0,7.0,52,0.00,,,0.00,Weather View 32 v70,2013-01-27 16:09:00,
2013-01-27 08:14:00,46.0,29.3,30.12,WSW,247,0.0,7.0,52,0.00,,,0.00,Weather View 32 v70,2013-01-27 16:14:00,
2013-01-27 08:19:00,47.0,30.3,30.12,NNW,337,0.0,7.0,52,0.00,,,0.00,Weather View 32 v70,2013-01-27 16:19:00,
2013-01-27 08:24:00,47.0,29.8,30.12,NNW,337,0.0,7.0,51,0.00,,,0.00,Weather View 32 v70,2013-01-27 16:24:00,
2013-01-27 08:29:00,48.0,-48.4,30.12,WNW,292,2.0,7.0,1,0.00,,,0.00,Weather View 32 v70,2013-01-27 16:29:00,
2013-01-27 08:34:00,48.0,30.7,30.12,North,360,0.0,7.0,51,0.00,,,0.00,Weather View 32 v70,2013-01-27 16:34:00,
2013-01-27 08:39:00,49.0,31.1,30.12,North,360,0.0,7.0,50,0.00,,,0.00,Weather View 32 v70,2013-01-27 16:39:00,
2013-01-27 08:44:00,49.0,31.1,30.12,East,90,2.0,7.0,50,0.00,,,0.00,Weather View 32 v70,2013-01-27 16:44:00,
2013-01-27 08:49:00,49.0,31.1,30.12,SW,225,1.0,7.0,50,0.00,,,0.00,Weather View 32 v70,2013-01-27 16:49:00,
2013-01-27 08:54:00,50.0,32.1,30.11,WSW,247,0.0,7.0,50,0.00,,,0.00,Weather View 32 v70,2013-01-27 16:54:00,
2013-01-27 08:59:00,50.0,32.1,30.11,North,360,0.0,7.0,50,0.00,,,0.00,Weather View 32 v70,2013-01-27 16:59:00,
2013-01-27 09:04:00,50.0,-47.2,30.12,NW,315,0.0,7.0,1,0.00,,,0.00,Weather View 32 v70,2013-01-27 17:04:00,
2013-01-27 09:09:00,50.0,32.1,30.12,North,360,4.0,7.0,50,0.00,,,0.00,Weather View 32 v70,2013-01-27 17:09:00,
2013-01-27 09:14:00,50.0,31.6,30.12,West,270,0.0,7.0,49,0.00,,,0.00,Weather View 32 v70,2013-01-27 17:14:00,
2013-01-27 09:19:00,50.0,31.6,30.11,East,90,5.0,7.0,49,0.00,,,0.00,Weather View 32 v70,2013-01-27 17:19:00,
2013-01-27 09:24:00,50.0,31.6,30.11,East,90,5.0,8.0,49,0.00,,,0.00,Weather View 32 v70,2013-01-27 17:24:00,
2013-01-27 09:29:00,50.0,31.6,30.11,North,360,6.0,8.0,49,0.00,,,0.00,Weather View 32 v70,2013-01-27 17:29:00,
2013-01-27 09:34:00,50.0,31.6,30.12,North,360,3.0,8.0,49,0.00,,,0.00,Weather View 32 v70,2013-01-27 17:34:00,
2013-01-27 09:36:00,50.0,31.6,30.12,North,360,3.0,8.0,49,0.00,,,0.00,Weather View 32 v70,2013-01-27 17:36:00,
2013-01-27 09:39:00,51.0,-46.6,30.12,North,360,6.0,8.0,1,0.00,,,0.00,Weather View 32 v70,2013-01-27 17:39:00,
2013-01-27 09:44:00,50.0,31.0,30.12,North,360,2.0,9.0,48,0.00,,,0.00,Weather View 32 v70,2013-01-27 17:44:00,
2013-01-27 09:49:00,51.0,32.0,30.12,ESE,112,0.0,10.0,48,0.00,,,0.00,Weather View 32 v70,2013-01-27 17:49:00,
2013-01-27 09:54:00,51.0,32.0,30.12,WNW,292,5.0,10.0,48,0.00,,,0.00,Weather View 32 v70,2013-01-27 17:54:00,
2013-01-27 09:59:00,51.0,32.0,30.12,North,360,4.0,10.0,48,0.00,,,0.00,Weather View 32 v70,2013-01-27 17:59:00,
2013-01-27 10:04:00,52.0,32.9,30.12,WSW,247,1.0,10.0,48,0.00,,,0.00,Weather View 32 v70,2013-01-27 18:04:00,
2013-01-27 10:09:00,52.0,32.9,30.12,North,360,4.0,10.0,48,0.00,,,0.00,Weather View 32 v70,2013-01-27 18:09:00,
2013-01-27 10:14:00,52.0,-46.0,30.13,East,90,4.0,10.0,1,0.00,,,0.00,Weather View 32 v70,2013-01-27 18:14:00,
2013-01-27 10:19:00,52.0,32.9,30.13,WNW,292,0.0,10.0,48,0.00,,,0.00,Weather View 32 v70,2013-01-27 18:19:00,
2013-01-27 10:24:00,52.0,32.4,30.13,North,360,1.0,10.0,47,0.00,,,0.00,Weather View 32 v70,2013-01-27 18:24:00,
2013-01-27 10:29:00,52.0,32.9,30.13,North,360,4.0,10.0,48,0.00,,,0.00,Weather View 32 v70,2013-01-27 18:29:00,
2013-01-27 10:34:00,52.0,32.4,30.13,East,90,0.0,10.0,47,0.00,,,0.00,Weather View 32 v70,2013-01-27 18:34:00,
2013-01-27 10:39:00,52.0,32.4,30.13,East,90,7.0,10.0,47,0.00,,,0.00,Weather View 32 v70,2013-01-27 18:39:00,
2013-01-27 10:44:00,52.0,32.4,30.14,North,360,8.0,10.0,47,0.00,,,0.00,Weather View 32 v70,2013-01-27 18:44:00,
2013-01-27 10:49:00,52.0,-46.0,30.14,North,360,1.0,10.0,1,0.00,,,0.00,Weather View 32 v70,2013-01-27 18:49:00,
2013-01-27 10:54:00,53.0,33.3,30.14,East,90,7.0,10.0,47,0.00,,,0.00,Weather View 32 v70,2013-01-27 18:54:00,
2013-01-27 10:59:00,53.0,33.3,30.13,NNW,337,0.0,10.0,47,0.00,,,0.00,Weather View 32 v70,2013-01-27 18:59:00,
2013-01-27 11:04:00,54.0,34.2,30.13,SW,225,2.0,10.0,47,0.00,,,0.00,Weather View 32 v70,2013-01-27 19:04:00,
2013-01-27 11:09:00,55.0,35.1,30.13,East,90,0.0,10.0,47,0.00,,,0.00,Weather View 32 v70,2013-01-27 19:09:00,
2013-01-27 11:14:00,55.0,35.1,30.12,North,360,0.0,10.0,47,0.00,,,0.00,Weather View 32 v70,2013-01-27 19:14:00,
2013-01-27 11:19:00,55.0,35.1,30.12,East,90,0.0,9.0,47,0.00,,,0.00,Weather View 32 v70,2013-01-27 19:19:00,
2013-01-27 11:24:00,55.0,-44.1,30.12,ESE,112,0.0,9.0,1,0.00,,,0.00,Weather View 32 v70,2013-01-27 19:24:00,
2013-01-27 11:29:00,55.0,35.1,30.12,SE,135,0.0,9.0,47,0.00,,,0.00,Weather View 32 v70,2013-01-27 19:29:00,
2013-01-27 11:34:00,55.0,34.6,30.12,WNW,292,0.0,9.0,46,0.00,,,0.00,Weather View 32 v70,2013-01-27 19:34:00,
2013-01-27 11:37:00,55.0,34.6,30.12,WNW,292,0.0,9.0,46,0.00,,,0.00,Weather View 32 v70,2013-01-27 19:37:00,
2013-01-27 11:39:00,55.0,34.6,30.12,NW,315,0.0,8.0,46,0.00,,,0.00,Weather View 32 v70,2013-01-27 19:39:00,
2013-01-27 11:44:00,55.0,34.6,30.12,NW,315,0.0,8.0,46,0.00,,,0.00,Weather View 32 v70,2013-01-27 19:44:00,
2013-01-27 11:49:00,55.0,33.4,30.11,SW,225,0.0,7.0,44,0.00,,,0.00,Weather View 32 v70,2013-01-27 19:49:00,
2013-01-27 11:54:00,55.0,34.0,30.11,SW,225,1.0,8.0,45,0.00,,,0.00,Weather View 32 v70,2013-01-27 19:54:00,
2013-01-27 11:59:00,56.0,-43.5,30.11,SW,225,5.0,8.0,1,0.00,,,0.00,Weather View 32 v70,2013-01-27 19:59:00,
2013-01-27 12:04:00,56.0,34.3,30.11,North,360,0.0,8.0,44,0.00,,,0.00,Weather View 32 v70,2013-01-27 20:04:00,
2013-01-27 12:09:00,56.0,34.3,30.11,SW,225,6.0,8.0,44,0.00,,,0.00,Weather View 32 v70,2013-01-27 20:09:00,
2013-01-27 12:14:00,56.0,34.3,30.11,SE,135,3.0,9.0,44,0.00,,,0.00,Weather View 32 v70,2013-01-27 20:14:00,
2013-01-27 12:19:00,55.0,33.4,30.11,SW,225,2.0,9.0,44,0.00,,,0.00,Weather View 32 v70,2013-01-27 20:19:00,
2013-01-27 12:24:00,56.0,34.3,30.10,SE,135,3.0,9.0,44,0.00,,,0.00,Weather View 32 v70,2013-01-27 20:24:00,
2013-01-27 12:29:00,56.0,34.3,30.10,West,270,1.0,9.0,44,0.00,,,0.00,Weather View 32 v70,2013-01-27 20:29:00,
2013-01-27 12:34:00,56.0,-43.5,30.10,WSW,247,2.0,9.0,1,0.00,,,0.00,Weather View 32 v70,2013-01-27 20:34:00,
2013-01-27 12:37:00,56.0,-43.5,30.10,WSW,247,2.0,9.0,1,0.00,,,0.00,Weather View 32 v70,2013-01-27 20:37:00,
2013-01-27 12:39:00,56.0,34.3,30.10,SE,135,0.0,9.0,44,0.00,,,0.00,Weather View 32 v70,2013-01-27 20:39:00,
2013-01-27 12:44:00,57.0,34.7,30.09,NNW,337,1.0,9.0,43,0.00,,,0.00,Weather View 32 v70,2013-01-27 20:44:00,
2013-01-27 12:49:00,57.0,35.3,30.09,SW,225,7.0,9.0,44,0.00,,,0.00,Weather View 32 v70,2013-01-27 20:49:00,
2013-01-27 12:59:00,57.0,34.1,30.09,WSW,247,8.0,9.0,42,0.00,,,0.00,Weather View 32 v70,2013-01-27 20:59:00,
2013-01-27 13:04:00,56.0,33.2,30.09,WSW,247,1.0,10.0,42,0.00,,,0.00,Weather View 32 v70,2013-01-27 21:04:00,
2013-01-27 13:09:00,57.0,-42.9,30.09,SW,225,8.0,10.0,1,0.00,,,0.00,Weather View 32 v70,2013-01-27 21:09:00,
2013-01-27 13:14:00,56.0,33.2,30.09,SW,225,0.0,10.0,42,0.00,,,0.00,Weather View 32 v70,2013-01-27 21:14:00,
2013-01-27 13:19:00,56.0,32.6,30.09,WNW,292,3.0,10.0,41,0.00,,,0.00,Weather View 32 v70,2013-01-27 21:19:00,
2013-01-27 13:24:00,57.0,33.5,30.09,NW,315,1.0,10.0,41,0.00,,,0.00,Weather View 32 v70,2013-01-27 21:24:00,
2013-01-27 13:29:00,57.0,33.5,30.09,NW,315,0.0,10.0,41,0.00,,,0.00,Weather View 32 v70,2013-01-27 21:29:00,
2013-01-27 13:34:00,56.0,32.6,30.09,West,270,5.0,11.0,41,0.00,,,0.00,Weather View 32 v70,2013-01-27 21:34:00,
2013-01-27 13:38:00,56.0,32.6,30.09,West,270,5.0,11.0,41,0.00,,,0.00,Weather View 32 v70,2013-01-27 21:38:00,
2013-01-27 13:39:00,55.0,31.7,30.09,WSW,247,6.0,11.0,41,0.00,,,0.00,Weather View 32 v70,2013-01-27 21:39:00,
2013-01-27 13:44:00,56.0,-43.5,30.09,West,270,10.0,11.0,1,0.00,,,0.00,Weather View 32 v70,2013-01-27 21:44:00,
2013-01-27 13:49:00,56.0,32.6,30.09,WSW,247,3.0,11.0,41,0.00,,,0.00,Weather View 32 v70,2013-01-27 21:49:00,
2013-01-27 13:54:00,56.0,32.6,30.09,SW,225,4.0,11.0,41,0.00,,,0.00,Weather View 32 v70,2013-01-27 21:54:00,
2013-01-27 13:59:00,57.0,33.5,30.09,NW,315,1.0,11.0,41,0.00,,,0.00,Weather View 32 v70,2013-01-27 21:59:00,
2013-01-27 14:04:00,57.0,32.9,30.09,NNW,337,4.0,11.0,40,0.00,,,0.00,Weather View 32 v70,2013-01-27 22:04:00,
2013-01-27 14:09:00,57.0,33.5,30.09,SW,225,8.0,12.0,41,0.00,,,0.00,Weather View 32 v70,2013-01-27 22:09:00,
2013-01-27 14:14:00,56.0,32.0,30.09,SW,225,2.0,12.0,40,0.00,,,0.00,Weather View 32 v70,2013-01-27 22:14:00,
2013-01-27 14:19:00,57.0,-42.9,30.09,SW,225,1.0,12.0,1,0.00,,,0.00,Weather View 32 v70,2013-01-27 22:19:00,
2013-01-27 14:24:00,56.0,32.0,30.09,SW,225,1.0,12.0,40,0.00,,,0.00,Weather View 32 v70,2013-01-27 22:24:00,
2013-01-27 14:29:00,56.0,32.0,30.09,WNW,292,3.0,12.0,40,0.00,,,0.00,Weather View 32 v70,2013-01-27 22:29:00,
2013-01-27 14:38:00,56.0,31.3,30.09,SW,225,0.0,12.0,39,0.00,,,0.00,Weather View 32 v70,2013-01-27 22:38:00,
2013-01-27 14:39:00,57.0,32.2,30.09,WSW,247,5.0,12.0,39,0.00,,,0.00,Weather View 32 v70,2013-01-27 22:39:00,
2013-01-27 14:44:00,56.0,31.3,30.09,SW,225,6.0,12.0,39,0.00,,,0.00,Weather View 32 v70,2013-01-27 22:44:00,
2013-01-27 14:49:00,56.0,31.3,30.09,SW,225,9.0,12.0,39,0.00,,,0.00,Weather View 32 v70,2013-01-27 22:49:00,
2013-01-27 14:54:00,56.0,-43.5,30.09,East,90,0.0,12.0,1,0.00,,,0.00,Weather View 32 v70,2013-01-27 22:54:00,
2013-01-27 14:59:00,56.0,31.3,30.09,WNW,292,0.0,12.0,39,0.00,,,0.00,Weather View 32 v70,2013-01-27 22:59:00,
2013-01-27 15:04:00,56.0,31.3,30.09,NW,315,4.0,12.0,39,0.00,,,0.00,Weather View 32 v70,2013-01-27 23:04:00,
2013-01-27 15:09:00,56.0,31.3,30.09,North,360,1.0,12.0,39,0.00,,,0.00,Weather View 32 v70,2013-01-27 23:09:00,
2013-01-27 15:14:00,56.0,31.3,30.09,West,270,3.0,12.0,39,0.00,,,0.00,Weather View 32 v70,2013-01-27 23:14:00,
2013-01-27 15:19:00,56.0,31.3,30.09,WNW,292,2.0,12.0,39,0.00,,,0.00,Weather View 32 v70,2013-01-27 23:19:00,
2013-01-27 15:24:00,56.0,31.3,30.09,NNW,337,2.0,12.0,39,0.00,,,0.00,Weather View 32 v70,2013-01-27 23:24:00,
2013-01-27 15:29:00,56.0,-43.5,30.09,WNW,292,6.0,12.0,1,0.00,,,0.00,Weather View 32 v70,2013-01-27 23:29:00,
2013-01-27 15:34:00,56.0,31.3,30.09,SW,225,6.0,13.0,39,0.00,,,0.00,Weather View 32 v70,2013-01-27 23:34:00,
2013-01-27 15:39:00,55.0,31.1,30.09,West,270,6.0,14.0,40,0.00,,,0.00,Weather View 32 v70,2013-01-27 23:39:00,
2013-01-27 15:44:00,55.0,31.1,30.09,WSW,247,0.0,14.0,40,0.00,,,0.00,Weather View 32 v70,2013-01-27 23:44:00,
2013-01-27 15:49:00,55.0,33.4,30.09,WNW,292,1.0,14.0,44,0.00,,,0.00,Weather View 32 v70,2013-01-27 23:49:00,
2013-01-27 15:54:00,54.0,30.2,30.09,SW,225,7.0,14.0,40,0.00,,,0.00,Weather View 32 v70,2013-01-27 23:54:00,
2013-01-27 15:59:00,55.0,31.7,30.09,WNW,292,5.0,14.0,41,0.00,,,0.00,Weather View 32 v70,2013-01-27 23:59:00,
2013-01-27 16:09:00,54.0,30.8,30.09,North,360,3.0,14.0,41,0.00,,,0.00,Weather View 32 v70,2013-01-28 00:09:00,
2013-01-27 16:14:00,55.0,32.3,30.08,WSW,247,4.0,14.0,42,0.00,,,0.00,Weather View 32 v70,2013-01-28 00:14:00,
2013-01-27 16:19:00,54.0,31.4,30.08,SW,225,8.0,14.0,42,0.00,,,0.00,Weather View 32 v70,2013-01-28 00:19:00,
2013-01-27 16:24:00,54.0,32.0,30.08,WNW,292,0.0,14.0,43,0.00,,,0.00,Weather View 32 v70,2013-01-28 00:24:00,
2013-01-27 16:29:00,54.0,32.5,30.09,WNW,292,6.0,14.0,44,0.00,,,0.00,Weather View 32 v70,2013-01-28 00:29:00,
2013-01-27 16:39:00,54.0,-44.7,30.09,SW,225,0.0,12.0,1,0.00,,,0.00,Weather View 32 v70,2013-01-28 00:39:00,
2013-01-27 16:44:00,54.0,33.6,30.09,SW,225,5.0,12.0,46,0.00,,,0.00,Weather View 32 v70,2013-01-28 00:44:00,
2013-01-27 16:49:00,53.0,33.3,30.09,SW,225,7.0,12.0,47,0.00,,,0.00,Weather View 32 v70,2013-01-28 00:49:00,
2013-01-27 16:54:00,53.0,39.0,30.09,WSW,247,3.0,12.0,59,0.00,,,0.00,Weather View 32 v70,2013-01-28 00:54:00,
2013-01-27 16:59:00,52.0,38.1,30.09,SW,225,2.0,12.0,59,0.00,,,0.00,Weather View 32 v70,2013-01-28 00:59:00,
2013-01-27 17:04:00,52.0,38.1,30.10,WSW,247,4.0,12.0,59,0.00,,,0.00,Weather View 32 v70,2013-01-28 01:04:00,
2013-01-27 17:14:00,51.0,25.6,30.10,WSW,247,2.0,12.0,37,0.00,,,0.00,Weather View 32 v70,2013-01-28 01:14:00,
2013-01-27 17:19:00,50.0,36.6,30.10,West,270,1.0,12.0,60,0.00,,,0.00,Weather View 32 v70,2013-01-28 01:19:00,
2013-01-27 17:24:00,50.0,37.5,30.11,WSW,247,6.0,12.0,62,0.00,,,0.00,Weather View 32 v70,2013-01-28 01:24:00,
2013-01-27 17:29:00,50.0,37.5,30.11,SW,225,4.0,12.0,62,0.00,,,0.00,Weather View 32 v70,2013-01-28 01:29:00,
2013-01-27 17:34:00,50.0,37.5,30.11,West,270,3.0,12.0,62,0.00,,,0.00,Weather View 32 v70,2013-01-28 01:34:00,
2013-01-27 17:39:00,49.0,36.9,30.11,West,270,0.0,12.0,63,0.00,,,0.00,Weather View 32 v70,2013-01-28 01:39:00,
2013-01-27 17:40:00,49.0,36.9,30.11,West,270,0.0,12.0,63,0.00,,,0.00,Weather View 32 v70,2013-01-28 01:40:00,
2013-01-27 17:44:00,49.0,37.3,30.12,West,270,4.0,13.0,64,0.00,,,0.00,Weather View 32 v70,2013-01-28 01:44:00,
2013-01-27 17:49:00,49.0,37.7,30.12,SW,225,3.0,13.0,65,0.00,,,0.00,Weather View 32 v70,2013-01-28 01:49:00,
2013-01-27 17:54:00,49.0,38.1,30.12,West,270,3.0,13.0,66,0.00,,,0.00,Weather View 32 v70,2013-01-28 01:54:00,
2013-01-27 17:59:00,49.0,38.9,30.11,SW,225,0.0,13.0,68,0.00,,,0.00,Weather View 32 v70,2013-01-28 01:59:00,
2013-01-27 18:04:00,49.0,38.9,30.11,WSW,247,7.0,13.0,68,0.00,,,0.00,Weather View 32 v70,2013-01-28 02:04:00,
2013-01-27 18:09:00,49.0,38.9,30.11,WSW,247,0.0,13.0,68,0.00,,,0.00,Weather View 32 v70,2013-01-28 02:09:00,
2013-01-27 18:14:00,48.0,37.9,30.11,WSW,247,4.0,13.0,68,0.00,,,0.00,Weather View 32 v70,2013-01-28 02:14:00,
2013-01-27 18:19:00,48.0,37.9,30.12,WNW,292,10.0,13.0,68,0.00,,,0.00,Weather View 32 v70,2013-01-28 02:19:00,
2013-01-27 18:24:00,48.0,38.3,30.12,WSW,247,3.0,13.0,69,0.00,,,0.00,Weather View 32 v70,2013-01-28 02:24:00,
2013-01-27 18:29:00,48.0,38.7,30.12,West,270,6.0,13.0,70,0.00,,,0.00,Weather View 32 v70,2013-01-28 02:29:00,
2013-01-27 18:34:00,48.0,39.0,30.11,WNW,292,5.0,13.0,71,0.00,,,0.00,Weather View 32 v70,2013-01-28 02:34:00,
2013-01-27 18:39:00,48.0,39.4,30.12,WNW,292,5.0,13.0,72,0.00,,,0.00,Weather View 32 v70,2013-01-28 02:39:00,
2013-01-27 18:41:00,48.0,39.4,30.12,WNW,292,5.0,13.0,72,0.00,,,0.00,Weather View 32 v70,2013-01-28 02:41:00,
2013-01-27 18:44:00,48.0,39.7,30.12,WNW,292,0.0,13.0,73,0.00,,,0.00,Weather View 32 v70,2013-01-28 02:44:00,
2013-01-27 18:49:00,48.0,39.7,30.12,WSW,247,8.0,13.0,73,0.00,,,0.00,Weather View 32 v70,2013-01-28 02:49:00,
2013-01-27 18:54:00,48.0,40.1,30.11,West,270,3.0,13.0,74,0.00,,,0.00,Weather View 32 v70,2013-01-28 02:54:00,
2013-01-27 18:59:00,48.0,40.4,30.12,WSW,247,6.0,14.0,75,0.00,,,0.00,Weather View 32 v70,2013-01-28 02:59:00,
2013-01-27 19:04:00,47.0,39.5,30.12,West,270,1.0,14.0,75,0.00,,,0.00,Weather View 32 v70,2013-01-28 03:04:00,
2013-01-27 19:09:00,47.0,39.8,30.12,SW,225,6.0,14.0,76,0.00,,,0.00,Weather View 32 v70,2013-01-28 03:09:00,
2013-01-27 19:14:00,47.0,40.2,30.12,NW,315,4.0,15.0,77,0.00,,,0.00,Weather View 32 v70,2013-01-28 03:14:00,
2013-01-27 19:19:00,47.0,40.2,30.12,NW,315,0.0,15.0,77,0.00,,,0.00,Weather View 32 v70,2013-01-28 03:19:00,
2013-01-27 19:25:00,47.0,40.2,30.13,WSW,247,2.0,15.0,77,0.00,,,0.00,Weather View 32 v70,2013-01-28 03:25:00,
2013-01-27 19:30:00,47.0,40.2,30.13,SW,225,0.0,15.0,77,0.00,,,0.00,Weather View 32 v70,2013-01-28 03:30:00,
2013-01-27 19:35:00,47.0,40.2,30.12,WNW,292,1.0,15.0,77,0.00,,,0.00,Weather View 32 v70,2013-01-28 03:35:00,
2013-01-27 19:40:00,47.0,40.2,30.12,SW,225,9.0,15.0,77,0.00,,,0.00,Weather View 32 v70,2013-01-28 03:40:00,
2013-01-27 19:45:00,47.0,40.2,30.13,WNW,292,0.0,15.0,77,0.00,,,0.00,Weather View 32 v70,2013-01-28 03:45:00,
2013-01-27 19:50:00,47.0,40.2,30.13,SW,225,6.0,15.0,77,0.00,,,0.00,Weather View 32 v70,2013-01-28 03:50:00,
2013-01-27 19:55:00,47.0,40.5,30.13,WNW,292,1.0,15.0,78,0.00,,,0.00,Weather View 32 v70,2013-01-28 03:55:00,
2013-01-27 20:00:00,47.0,40.2,30.13,WSW,247,6.0,15.0,77,0.00,,,0.00,Weather View 32 v70,2013-01-28 04:00:00,
2013-01-27 20:05:00,47.0,40.2,30.13,SW,225,2.0,15.0,77,0.00,,,0.00,Weather View 32 v70,2013-01-28 04:05:00,
2013-01-27 20:10:00,47.0,40.2,30.13,WSW,247,1.0,15.0,77,0.00,,,0.00,Weather View 32 v70,2013-01-28 04:10:00,
2013-01-27 20:15:00,47.0,40.2,30.13,WSW,247,0.0,12.0,77,0.00,,,0.00,Weather View 32 v70,2013-01-28 04:15:00,
2013-01-27 20:20:00,47.0,40.2,30.13,West,270,0.0,12.0,77,0.00,,,0.00,Weather View 32 v70,2013-01-28 04:20:00,
2013-01-27 20:25:00,47.0,40.2,30.13,WSW,247,9.0,12.0,77,0.00,,,0.00,Weather View 32 v70,2013-01-28 04:25:00,
2013-01-27 20:30:00,47.0,40.5,30.13,WNW,292,4.0,12.0,78,0.00,,,0.00,Weather View 32 v70,2013-01-28 04:30:00,
2013-01-27 20:34:00,47.0,40.2,30.13,West,270,0.0,12.0,77,0.00,,,0.00,Weather View 32 v70,2013-01-28 04:34:00,
2013-01-27 20:39:00,47.0,40.2,30.13,WNW,292,6.0,12.0,77,0.00,,,0.00,Weather View 32 v70,2013-01-28 04:39:00,
2013-01-27 20:43:00,47.0,40.2,30.13,WNW,292,6.0,12.0,77,0.00,,,0.00,Weather View 32 v70,2013-01-28 04:43:00,
2013-01-27 20:44:00,47.0,40.2,30.13,SW,225,0.0,12.0,77,0.00,,,0.00,Weather View 32 v70,2013-01-28 04:44:00,
2013-01-27 20:49:00,47.0,40.2,30.13,WSW,247,4.0,12.0,77,0.00,,,0.00,Weather View 32 v70,2013-01-28 04:49:00,
2013-01-27 20:54:00,47.0,40.2,30.13,WSW,247,3.0,12.0,77,0.00,,,0.00,Weather View 32 v70,2013-01-28 04:54:00,
2013-01-27 20:59:00,47.0,40.2,30.13,WNW,292,4.0,12.0,77,0.00,,,0.00,Weather View 32 v70,2013-01-28 04:59:00,
2013-01-27 21:04:00,47.0,40.5,30.13,WSW,247,0.0,12.0,78,0.00,,,0.00,Weather View 32 v70,2013-01-28 05:04:00,
2013-01-27 21:09:00,47.0,40.2,30.13,SW,225,0.0,12.0,77,0.00,,,0.00,Weather View 32 v70,2013-01-28 05:09:00,
2013-01-27 21:14:00,46.0,39.2,30.13,WNW,292,3.0,12.0,77,0.00,,,0.00,Weather View 32 v70,2013-01-28 05:14:00,
2013-01-27 21:19:00,46.0,39.2,30.13,SW,225,0.0,12.0,77,0.00,,,0.00,Weather View 32 v70,2013-01-28 05:19:00,
2013-01-27 21:24:00,46.0,39.2,30.13,WSW,247,0.0,12.0,77,0.00,,,0.00,Weather View 32 v70,2013-01-28 05:24:00,
2013-01-27 21:29:00,46.0,39.5,30.13,WNW,292,0.0,10.0,78,0.00,,,0.00,Weather View 32 v70,2013-01-28 05:29:00,
2013-01-27 21:34:00,46.0,39.5,30.13,NW,315,1.0,10.0,78,0.00,,,0.00,Weather View 32 v70,2013-01-28 05:34:00,
2013-01-27 21:39:00,46.0,40.2,30.13,WSW,247,0.0,10.0,80,0.00,,,0.00,Weather View 32 v70,2013-01-28 05:39:00,
2013-01-27 21:44:00,46.0,39.5,30.13,WSW,247,0.0,10.0,78,0.00,,,0.00,Weather View 32 v70,2013-01-28 05:44:00,
2013-01-27 21:49:00,45.0,38.5,30.13,SW,225,0.0,10.0,78,0.00,,,0.00,Weather View 32 v70,2013-01-28 05:49:00,
2013-01-27 21:54:00,46.0,40.2,30.13,West,270,3.0,9.0,80,0.00,,,0.00,Weather View 32 v70,2013-01-28 05:54:00,
2013-01-27 21:59:00,46.0,39.5,30.13,West,270,0.0,9.0,78,0.00,,,0.00,Weather View 32 v70,2013-01-28 05:59:00,
2013-01-27 22:04:00,46.0,39.5,30.13,WNW,292,1.0,8.0,78,0.00,,,0.00,Weather View 32 v70,2013-01-28 06:04:00,
2013-01-27 22:14:00,46.0,39.5,30.13,West,270,0.0,8.0,78,0.00,,,0.00,Weather View 32 v70,2013-01-28 06:14:00,
2013-01-27 22:19:00,46.0,39.5,30.13,NW,315,0.0,7.0,78,0.00,,,0.00,Weather View 32 v70,2013-01-28 06:19:00,
2013-01-27 22:24:00,45.0,38.5,30.13,WNW,292,0.0,7.0,78,0.00,,,0.00,Weather View 32 v70,2013-01-28 06:24:00,
2013-01-27 22:29:00,46.0,40.2,30.13,WNW,292,0.0,7.0,80,0.00,,,0.00,Weather View 32 v70,2013-01-28 06:29:00,
2013-01-27 22:34:00,46.0,39.5,30.13,NW,315,0.0,7.0,78,0.00,,,0.00,Weather View 32 v70,2013-01-28 06:34:00,
2013-01-27 22:39:00,46.0,39.5,30.13,West,270,0.0,7.0,78,0.00,,,0.00,Weather View 32 v70,2013-01-28 06:39:00,
2013-01-27 22:43:00,46.0,39.5,30.13,West,270,0.0,7.0,78,0.00,,,0.00,Weather View 32 v70,2013-01-28 06:43:00,
2013-01-27 22:44:00,46.0,39.5,30.13,NNW,337,0.0,7.0,78,0.00,,,0.00,Weather View 32 v70,2013-01-28 06:44:00,
2013-01-27 22:49:00,46.0,39.5,30.13,East,90,0.0,7.0,78,0.00,,,0.00,Weather View 32 v70,2013-01-28 06:49:00,
2013-01-27 22:54:00,46.0,39.5,30.13,West,270,0.0,8.0,78,0.00,,,0.00,Weather View 32 v70,2013-01-28 06:54:00,
2013-01-27 22:59:00,46.0,39.5,30.13,North,360,0.0,8.0,78,0.00,,,0.00,Weather View 32 v70,2013-01-28 06:59:00,
2013-01-27 23:04:00,46.0,39.8,30.13,West,270,1.0,8.0,79,0.00,,,0.00,Weather View 32 v70,2013-01-28 07:04:00,
2013-01-27 23:09:00,46.0,39.5,30.13,WNW,292,0.0,8.0,78,0.00,,,0.00,Weather View 32 v70,2013-01-28 07:09:00,
2013-01-27 23:14:00,46.0,39.5,30.13,WSW,247,6.0,9.0,78,0.00,,,0.00,Weather View 32 v70,2013-01-28 07:14:00,
2013-01-27 23:19:00,46.0,39.5,30.14,SW,225,4.0,9.0,78,0.00,,,0.00,Weather View 32 v70,2013-01-28 07:19:00,
2013-01-27 23:24:00,46.0,39.5,30.14,WSW,247,0.0,11.0,78,0.00,,,0.00,Weather View 32 v70,2013-01-28 07:24:00,
2013-01-27 23:29:00,46.0,39.5,30.13,WNW,292,1.0,11.0,78,0.00,,,0.00,Weather View 32 v70,2013-01-28 07:29:00,
2013-01-27 23:34:00,46.0,39.5,30.14,NW,315,1.0,11.0,78,0.00,,,0.00,Weather View 32 v70,2013-01-28 07:34:00,
2013-01-27 23:39:00,46.0,39.8,30.14,WNW,292,1.0,11.0,79,0.00,,,0.00,Weather View 32 v70,2013-01-28 07:39:00,
2013-01-27 23:44:00,46.0,39.8,30.14,WNW,292,1.0,11.0,79,0.00,,,0.00,Weather View 32 v70,2013-01-28 07:44:00,
2013-01-27 23:49:00,46.0,39.5,30.14,West,270,2.0,11.0,78,0.00,,,0.00,Weather View 32 v70,2013-01-28 07:49:00,
2013-01-27 23:54:00,46.0,39.8,30.14,WSW,247,0.0,11.0,79,0.00,,,0.00,Weather View 32 v70,2013-01-28 07:54:00,
2013-01-27 23:59:00,45.0,38.5,30.14,WSW,247,3.0,11.0,78,0.00,,,0.00,Weather View 32 v70,2013-01-28 07:59:00,